WZZ1261 LWSK-EDDK

Flight info

Callsign WZZ1261
Flight time N/A
Altitude 34000
Route RAXAD DCT VAGEN DCT SOMUN DCT SIVLA DCT NIDLO DCT BAGSI DCT RENKA DCT RODIS L604 MASEK T841 ERNEP ERNEP1K
Aircraft A21N/M-SDE1E2E3FGIJ1J4RWXY/LB1

Departure

Time 2026-04-26 20:54
Airport Skopje International Airport (LWSK)

Arrival

Time N/A
Airport Cologne Bonn Airport (EDDK)
Time Latitude Longitude Altitude Speed Heading
2026-04-26 20:09 41.95995 21.62612 799 ft 0 kts 75°
2026-04-26 20:40 41.95994 21.62611 798 ft 2 kts 75°
2026-04-26 20:41 41.95989 21.62585 798 ft 2 kts 75°
2026-04-26 20:41 41.95986 21.62564 798 ft 3 kts 108°
2026-04-26 20:41 41.95996 21.62550 798 ft 3 kts 160°
2026-04-26 20:41 41.96015 21.62542 798 ft 3 kts 166°
2026-04-26 20:42 41.96034 21.62536 798 ft 3 kts 166°
2026-04-26 20:42 41.96054 21.62530 798 ft 2 kts 166°
2026-04-26 20:42 41.96055 21.62529 798 ft 1 kts 166°
2026-04-26 20:47 41.96051 21.62530 798 ft 2 kts 166°
2026-04-26 20:47 41.96040 21.62527 798 ft 3 kts 206°
2026-04-26 20:47 41.96023 21.62510 798 ft 3 kts 242°
2026-04-26 20:47 41.96010 21.62482 797 ft 4 kts 211°
2026-04-26 20:48 41.95971 21.62481 797 ft 7 kts 168°
2026-04-26 20:48 41.95916 21.62501 796 ft 9 kts 164°
2026-04-26 20:48 41.95852 21.62526 795 ft 10 kts 163°
2026-04-26 20:48 41.95779 21.62556 793 ft 12 kts 164°
2026-04-26 20:49 41.95695 21.62578 792 ft 13 kts 168°
2026-04-26 20:49 41.95604 21.62610 791 ft 14 kts 166°
2026-04-26 20:49 41.95503 21.62645 790 ft 15 kts 164°
2026-04-26 20:49 41.95398 21.62684 788 ft 16 kts 164°
2026-04-26 20:50 41.95289 21.62725 786 ft 14 kts 164°
2026-04-26 20:50 41.95221 21.62750 785 ft 8 kts 167°
2026-04-26 20:50 41.95165 21.62742 784 ft 9 kts 214°
2026-04-26 20:50 41.95134 21.62664 784 ft 11 kts 255°
2026-04-26 20:51 41.95113 21.62561 785 ft 11 kts 255°
2026-04-26 20:51 41.95061 21.62526 786 ft 10 kts 165°
2026-04-26 20:51 41.94990 21.62553 785 ft 11 kts 165°
2026-04-26 20:51 41.94911 21.62582 784 ft 12 kts 164°
2026-04-26 20:52 41.94826 21.62630 785 ft 14 kts 141°
2026-04-26 20:52 41.94787 21.62673 784 ft 7 kts 140°
2026-04-26 20:52 41.94741 21.62704 782 ft 8 kts 165°
2026-04-26 20:52 41.94694 21.62678 781 ft 9 kts 263°
2026-04-26 20:53 41.94743 21.62638 784 ft 4 kts 345°
2026-04-26 20:53 41.94744 21.62637 784 ft 0 kts 345°
2026-04-26 20:53 41.94757 21.62633 784 ft 16 kts 345°
2026-04-26 20:53 41.95115 21.62510 786 ft 90 kts 345°
2026-04-26 20:54 41.95924 21.62224 793 ft 146 kts 346°
2026-04-26 20:54 41.96945 21.61872 1218 ft 151 kts 346°
2026-04-26 20:54 41.98002 21.61880 1640 ft 161 kts 22°
2026-04-26 20:54 41.99004 21.62617 2100 ft 171 kts 31°
2026-04-26 20:55 41.99737 21.63962 2362 ft 195 kts 76°
2026-04-26 20:55 41.99626 21.65856 2849 ft 213 kts 99°
2026-04-26 20:55 41.99314 21.67888 3330 ft 233 kts 96°
2026-04-26 20:55 41.99277 21.70116 3814 ft 244 kts 74°
2026-04-26 20:56 41.99965 21.72215 4415 ft 251 kts 52°
2026-04-26 20:56 42.01021 21.74112 5193 ft 256 kts 49°
2026-04-26 20:56 42.02117 21.76023 5980 ft 261 kts 49°
2026-04-26 20:56 42.03232 21.77985 6737 ft 267 kts 49°
2026-04-26 20:57 42.04347 21.79968 7470 ft 272 kts 49°
2026-04-26 20:57 42.05496 21.82025 8223 ft 277 kts 49°
2026-04-26 20:57 42.06659 21.84114 9012 ft 280 kts 50°
2026-04-26 20:57 42.07833 21.86224 9794 ft 283 kts 50°
2026-04-26 20:58 42.09030 21.88382 10362 ft 295 kts 50°
2026-04-26 20:58 42.10343 21.90610 10681 ft 313 kts 47°
2026-04-26 20:58 42.11755 21.92929 11108 ft 326 kts 47°
2026-04-26 20:58 42.13206 21.95311 11728 ft 331 kts 48°
2026-04-26 20:59 42.14677 21.97722 12405 ft 335 kts 48°
2026-04-26 20:59 42.16167 22.00163 13087 ft 339 kts 48°
2026-04-26 20:59 42.17675 22.02634 13773 ft 344 kts 48°
2026-04-26 20:59 42.19198 22.05144 14403 ft 348 kts 49°
2026-04-26 21:00 42.20734 22.07680 15041 ft 351 kts 49°
2026-04-26 21:00 42.22290 22.10240 15670 ft 354 kts 48°
2026-04-26 21:00 42.23855 22.12827 16321 ft 357 kts 49°
2026-04-26 21:00 42.25429 22.15437 17001 ft 360 kts 49°
2026-04-26 21:01 42.27019 22.18063 17653 ft 363 kts 48°
2026-04-26 21:01 42.28812 22.20457 18267 ft 364 kts 35°
2026-04-26 21:01 42.31023 22.22092 18816 ft 363 kts 17°
2026-04-26 21:01 42.33491 22.22749 19337 ft 363 kts
2026-04-26 21:02 42.36001 22.22394 19822 ft 366 kts 345°
2026-04-26 21:02 42.38454 22.21425 20342 ft 369 kts 342°
2026-04-26 21:02 42.40747 22.20445 20808 ft 372 kts 342°